Home   Weather   Herne   Past weeks

Flag for Germany Past Weather in Herne, North Rhine-Westphalia, Germany — Yesterday and Last 2 Weeks

Now
57 °F

Passing clouds.


Feels Like: 54 °F
Forecast: 45 / 51 °F
Wind: 16 mph from Southeast

Location: Dortmund / Wickede

Current Time: Apr 30, 2017 at 1:08:44 pm

Latest Report: Apr 30, 2017 at 12:20 pm


Visibility: N/A

Pressure: 29.89 "Hg

Humidity: 31%

Dew Point: 27 °F

Location of HerneLocation

Past Weather in Herne — Graph

°F

Herne Temperature Yesterday

Maximum temperature yesterday: 52 °F (at 4:20 pm)
Minimum temperature yesterday: 36 °F (at 5:20 am)
Average temperature yesterday: 46 °F

High & Low Weather Summary for the Past Weeks

 TemperatureHumidityPressure
High57 °F (Apr 24, 2:50 pm)93% (Apr 18, 5:20 am)30.60 "Hg (Apr 18, 5:20 am)
Low25 °F (Apr 20, 5:20 am)28% (Apr 20, 3:20 pm)29.68 "Hg (Apr 25, 5:20 am)
Average44 °F63%30.12 "Hg
* Reported Apr 15 11:20 am — Apr 30 11:50 am, Herne, Weather by CustomWeather, © 2017

Note: Actual official high and low records may vary slightly from our data, if they occured in-between our weather recording intervals... More about our weather records

Advertising

Herne Weather History for the Previous 24 Hours

Scroll right to see more
 ConditionsComfort  
Time TempWeatherWind HumidityBarometerVisibility
11:50 am
Sun, Apr 30
57 °FPassing clouds.15 mph33%29.92 "HgN/A
11:20 am57 °FPassing clouds.14 mph33%29.92 "HgN/A
10:50 am55 °FPassing clouds.13 mph41%29.92 "HgN/A
10:20 am54 °FPassing clouds.13 mph44%29.95 "HgN/A
9:50 am52 °FPassing clouds.10 mph44%29.95 "HgN/A
9:20 am50 °FPassing clouds.8 mph47%29.95 "HgN/A
8:50 am48 °FPassing clouds.6 mph50%29.95 "HgN/A
8:20 am43 °FSunny.3 mph66%29.98 "Hg10 mi
7:50 am39 °FSunny.3 mph70%29.98 "Hg10 mi
7:20 am36 °FSunny.No wind75%29.98 "Hg10 mi
6:50 am34 °FSunny.6 mph75%29.98 "Hg10 mi
6:20 am32 °FSunny.6 mph80%29.98 "Hg10 mi
5:50 am32 °FPassing clouds.5 mph80%29.98 "HgN/A
5:20 am32 °FClear.6 mph80%29.98 "Hg10 mi
9:50 pm
Sat, Apr 29
45 °FClear.8 mph53%30.04 "Hg10 mi
9:20 pm45 °FClear.8 mph53%30.04 "Hg10 mi
8:50 pm45 °FClear.6 mph53%30.04 "Hg10 mi
8:20 pm48 °FSunny.8 mph43%30.04 "Hg10 mi
7:50 pm50 °FSunny.2 mph37%30.04 "Hg10 mi
7:20 pm50 °FPassing clouds.5 mph40%30.04 "HgN/A
6:50 pm50 °FSunny.7 mph43%30.04 "Hg10 mi
6:20 pm52 °FSunny.5 mph35%30.04 "Hg10 mi
5:50 pm52 °FPassing clouds.5 mph38%30.04 "HgN/A
5:20 pm52 °FPassing clouds.5 mph41%30.04 "HgN/A
4:50 pm52 °FPassing clouds.5 mph38%30.04 "HgN/A
4:20 pm52 °FSunny.2 mph32%30.07 "Hg10 mi
3:50 pm50 °FSunny.5 mph40%30.07 "Hg10 mi
3:20 pm50 °FSunny.3 mph43%30.07 "Hg10 mi
2:20 pm50 °FPartly sunny.6 mph47%30.07 "HgN/A
1:50 pm48 °FSunny.5 mph50%30.07 "Hg10 mi
1:20 pm48 °FPartly sunny.6 mph46%30.07 "HgN/A
Weather by CustomWeather, © 2017

See weather overviewHow to use our weather pages